Regional Weather Roundup
Issued by NWS

Home | Current Version | Previous Version | Graphics & Text | Print | Product List | Glossary On
Versions: 1 2 3 4 5 6 7 8 9 10 11 12 13 14 15 16 17 18 19 20 21 22 23 24 25 26 27 28 29 30 31 32 33 34 35 36 37 38 39 40 41 42 43 44 45 46 47 48 49 50
000
ASUS45 KABQ 271001
RWRNM
WEATHER ROUNDUP FOR NEW MEXICO
NATIONAL WEATHER SERVICE ALBUQUERQUE NM
400 AM MDT MON APR 27 2015

NOTE: "FAIR" MEANS FEW OR NO CLOUDS BELOW 12,000 FEET AGL WITH NO
       SIGNIFICANT WEATHER OR OBSTRUCTIONS TO VISION.

      THIS PRODUCT IS RELEASED AS TWO VERSIONS.  ONE VERSION NEAR
      THE TOP OF THE HOUR CONTAINING PRELIMINARY DATA FROM ALBUQUERQUE
      AND OTHER STATIONS.  A FINAL VERSION WITH ADDITIONAL DATA IS
      ISSUED ABOUT 10 MINUTES AFTER THE HOUR.

NMZ501-503-504-510>518-271100-
NORTHWEST PLATEAU/NORTHCENTRAL MOUNTAINS

CITY           SKY/WX    TMP DP  RH WIND       PRES   REMARKS
FARMINGTON     CLEAR     39  37  92 NE5       29.93R
LOS ALAMOS     CLOUDY    37  37  99 N14       29.97R WCI  28
SANTA FE       MOCLDY    38  35  89 N10       29.93S WCI  31
TAOS           CLOUDY    36  28  75 CALM      29.98R
ANGEL FIRE     LGT SNOW  32  32  99 N5        29.95S WCI  27

$$
NMZ402-403-502-505>509-271100-
WESTCENTRAL MOUNTAINS/SOUTHWEST MOUNTAINS

CITY           SKY/WX    TMP DP  RH WIND       PRES   REMARKS
GALLUP         LGT RAIN  43  39  86 NE8       29.94R
GRANTS         CLOUDY    38  37  99 CALM      29.95R
SILVER CITY      N/A     39  36  87 N12       29.92S WCI  32

$$
NMZ407-409-411-412-271100-
SOUTHERN DESERTS

CITY           SKY/WX    TMP DP  RH WIND       PRES   REMARKS
LORDSBURG      FAIR      37  36  93 W6        29.90S WCI  33
DEMING         MOCLDY    43  38  82 W7        29.88S
LAS CRUCES     PTCLDY    42  35  77 CALM      29.87R
HOLLOMAN AFB   MOCLDY    46  43  87 N8        29.83S
ALAMOGORDO     CLOUDY    46  39  76 CALM      29.85S
T OR C         CLOUDY    46  42  86 N5        29.87S

$$
NMZ519>523-271100-
CENTRAL VALLEYS/CENTRAL HIGHLANDS

CITY           SKY/WX    TMP DP  RH WIND       PRES   REMARKS
ALBUQUERQUE    CLOUDY    45  40  82 SE5       29.92R
DOUBLE EAGLE   MOCLDY    40  38  93 NE9       29.93S WCI  33
MORIARTY ARPT  FAIR      37  34  89 N6        29.95S WCI  32
CLINES CORNERS LGT SNOW  33  31  92 NE15      29.91S FOG     WCI  23
BELEN          CLOUDY    44  41  89 N6        29.91S
SOCORRO        RAIN      44  42  93 N5        29.90R

$$
NMZ524>526-539-540-271100-
SOUTHCENTRAL MOUNTAINS

CITY           SKY/WX    TMP DP  RH WIND       PRES   REMARKS
RUIDOSO        NOT AVBL

$$
NMZ527>531-271100-
NORTHEAST HIGHLANDS/NORTHEAST PLAINS

CITY           SKY/WX    TMP DP  RH WIND       PRES   REMARKS
LAS VEGAS      LGT RAIN  33  32  96 N16       29.95R WCI  23
RATON          LGT RAIN  40  36  86 N13       29.97R WCI  32
CLAYTON        RAIN      42  40  92 NE21G28   29.94R

$$
NMZ532>537-271100-
EASTCENTRAL PLAINS

CITY           SKY/WX    TMP DP  RH WIND       PRES   REMARKS
TUCUMCARI      LGT RAIN  48  45  89 NE16      29.87R
CANNON AFB     NOT AVBL
CLOVIS AIRPORT CLOUDY    48  43  81 NE13      29.83S

$$
NMZ028-029-538-271100-
SOUTHEAST PLAINS

CITY           SKY/WX    TMP DP  RH WIND       PRES   REMARKS
ROSWELL        CLEAR     50  41  71 NW13      29.78R
ARTESIA        PTCLDY    46  36  66 W8        29.81R
CARLSBAD       CLEAR     46  34  62 N6        29.79R
HOBBS          CLEAR     41  41 100 NW6       29.79S


$$



USA.gov is the U.S. government's official web portal to all federal, state and local government web resources and services.